Regional Weather Roundup
Issued by NWS

Home | Current Version | Previous Version | Text Only | Print | Product List | Glossary Off
Versions: 1 2 3 4 5 6 7 8 9 10 11 12 13 14 15 16 17 18 19 20 21 22 23 24 25 26 27 28 29 30 31 32 33 34 35 36 37 38 39 40 41 42 43 44 45 46 47 48 49 50

361
ASUS43 KDTX 272301
RWRMI
MICHIGAN HOURLY REGIONAL WEATHER ROUNDUP
NATIONAL WEATHER SERVICE DETROIT/PONTIAC MI
700 PM EDT MON MAR 27 2017

NOTE: "FAIR" INDICATES FEW OR NO CLOUDS BELOW 12,000 FEET WITH NO
SIGNIFICANT WEATHER AND/OR OBSTRUCTION TO VISIBILITY.

MIZ047>049-052>055-059>063-066>070-074>076-081>083-280000-
SOUTHEAST LOWER MICHIGAN

CITY           SKY/WX    TMP DP  RH WIND       PRES   REMARKS
ADRIAN         CLOUDY    57  49  74 W5        29.89S
ALMA           CLOUDY    48  43  81 NW8G16    29.91S
ANN ARBOR      CLOUDY    58  48  69 W5        29.87F
BAD AXE        CLOUDY    47  44  89 NW5       29.91R
CARO           CLOUDY    50  46  83 NW7       29.90S
DETROIT CITY   CLOUDY    57  50  77 SW8       29.88S
DETROIT        CLOUDY    60  49  66 W8        29.89S
FLINT          CLOUDY    52  46  80 NW9       29.89S
GROSSE ILE     CLOUDY    46  43  91 CALM      29.88S
HILLSDALE      CLOUDY    55  46  71 CALM      29.88R
HOWELL         MOCLDY    55  46  73 NW7       29.88S

CITY           SKY/WX    TMP DP  RH WIND       PRES   REMARKS
JACKSON        CLOUDY    55  48  77 NW5       29.88S
LAMBERTVILLE   CLOUDY    60  49  68 NW3       29.87S
LANSING        CLOUDY    52  45  77 NW7       29.90S
LAPEER         CLOUDY    54  47  79 NW7       29.89R
MASON          CLOUDY    53  48  83 NW6       29.89S
MONROE         CLOUDY    58  52  80 W3        29.88R
MT. CLEMENS    CLOUDY    54  52  92 SE5       29.86S
PONTIAC        CLOUDY    56  47  71 W8        29.87S
PORT HOPE        N/A     36  35  96 CALM      29.91R
PORT HURON     CLOUDY    55  48  76 CALM      29.89S
TRI CITIES     CLOUDY    49  44  83 W8        29.91S
MIDLAND        CLOUDY    49  41  72 W3        29.91R
TROY           CLOUDY    60  47  63 W5        29.90R
SAGINAW HB     CLOUDY    50  43  76 W9        29.90R
$$
MIZ043>046-050>051-056>058-064>065-071>073-077>080-280000-
SOUTHWEST LOWER MICHIGAN

CITY           SKY/WX    TMP DP  RH WIND       PRES   REMARKS
BATTLE CREEK   CLOUDY    52  47  83 NW6       29.90R
BENTON HARBOR  CLOUDY    42  36  79 VRB3      29.92S
BIG RAPIDS     CLOUDY    44  38  80 NW5       29.92R
COLDWATER      CLOUDY    56  50  80 NW3       29.88S
FREMONT        CLOUDY    45  39  77 N12       29.92S
HOLLAND        CLOUDY    43  37  79 NW7       29.93S
GRAND RAPIDS   CLOUDY    50  43  77 W7        29.91S
IONIA          CLOUDY    49  42  76 NW5       29.90R
KALAMAZOO      CLOUDY    53  46  77 NW7       29.91R
LUDINGTON      CLOUDY    38  36  91 N7        29.95S WCI  33
MARSHALL       CLOUDY    55  49  82 CALM      29.89R
MOUNT PLEASANT CLOUDY    48  41  77 NW5       29.91S
MUSKEGON       PTSUNNY   44  37  76 NW6       29.94S
SOUTH HAVEN    CLOUDY    43  39  85 NW3       29.93S
$$
MIZ016>042-280000-
NORTHERN LOWER MICHIGAN

CITY           SKY/WX    TMP DP  RH WIND       PRES   REMARKS
ALPENA         CLOUDY    41  38  89 NW7       29.92R
BEAVER ISLAND  CLOUDY    37  34  90 NW6       29.96R WCI  32
BELLAIRE       CLOUDY    38  34  84 CALM      29.96S
CADILLAC       CLOUDY    40  38  91 NW6       29.92R
CHARLEVOIX     CLOUDY    37  37  99 W3        29.98S
FRANKFORT      CLOUDY    37  33  85 N7        29.96R WCI  32
GAYLORD        CLOUDY    38  33  82 VRB3      29.92R
GRAYLING       CLOUDY    39  36  87 NW8       29.94R WCI  34
HARBOR SPRINGS CLOUDY    33  33 100 SW3       29.95R
HOUGHTON LAKE  CLOUDY    41  37  86 NW6       29.92R
MANISTEE       CLOUDY    38  35  89 NW7       29.96R WCI  33
OSCODA         LGT SNOW  38  37  98 CALM      29.91R
PELLSTON       CLOUDY    38  34  85 NW8       29.95R WCI  32
ROGERS CITY    CLOUDY    39  36  87 NW8       29.93R WCI  33
TRAVERSE CITY  CLOUDY    39  35  86 NW7       29.95S WCI  34
$$
MIZ007>008-015-280000-
EASTERN UPPER MICHIGAN

CITY           SKY/WX    TMP DP  RH WIND       PRES   REMARKS
KINROSS        CLOUDY    35  33  92 NW7       29.93R WCI  29
MACKINAC ISLAN CLOUDY    36  36 100 NW6       29.93S WCI  31
NEWBERRY       CLOUDY    35  34  97 NW6       29.94S WCI  29
S. S. MARIE    LGT RAIN  36  32  85 NW7       29.92S WCI  30
MUNISING         N/A     34  33  96 NW6       29.97S WCI  29
$$
MIZ004>006-011>014-085-280000-
CENTRAL UPPER MICHIGAN

CITY           SKY/WX    TMP DP  RH WIND       PRES   REMARKS
MANISTIQUE     CLOUDY    36  36 100 N9        29.96R WCI  29
ESCANABA       CLOUDY    42  37  82 N5        29.97R
MENOMINEE        N/A    N/A N/A N/A MISG        N/A
SAWYER-GWINN   PTSUNNY   37  34  87 NE5       29.96R WCI  34
$$
MIZ001>003-009>011-084-280000-
WESTERN UPPER MICHIGAN

CITY           SKY/WX    TMP DP  RH WIND       PRES   REMARKS
IRON MOUNTAIN  CLOUDY    42  34  73 N7        29.94F
HOUGHTON       CLOUDY    38  31  76 NW10      29.96S WCI  31
COPPER HARBOR    N/A     36  33  89 N9        29.97S WCI  29
IRONWOOD       CLOUDY    46  31  55 N6        29.97S
$$

ABBREVIATIONS USED IN REMARKS
   TC - TEMPERATURE IN CELSIUS
  WCI - WIND CHILL INDEX
   HX - HEAT INDEX
  VSB - VISIBILITY





USA.gov is the U.S. government's official web portal to all federal, state and local government web resources and services.